Regional Weather Roundup
Issued by NWS Midland/Odessa, TX

Skip options and go directly to product.
Home | Oldest Version | Next Version | Current Version | All | Text Only | Save Text | Print | Product List | Glossary On

Skip product version selection by date and time.   
911
ASUS44 KMAF 010801
RWRMAF
MIDLAND AREA WEATHER ROUNDUP
NATIONAL WEATHER SERVICE MIDLAND TX
300 AM CDT WED JUL 01 2015

...IN SOUTHWEST TEXAS AND SOUTHEAST NEW MEXICO...

CITY           SKY/WX    TMP DP  RH WIND       PRES   REMARKS
ALPINE         CLEAR     61  58  91 SW7       30.19F
ANDREWS        FAIR      71  66  84 S7        30.10S
ARTESIA        CLEAR     68  55  64 S7        30.10S
BIG SPRING     CLEAR     74  69  84 SE9       30.09S
CARLSBAD       CLEAR     72  58  61 S7        30.07R
DRYDEN           N/A     73  68  84 VRB3      30.04S
FORT STOCKTON  CLEAR     70  65  84 S13G22    30.06F
GUAD PASS      PTCLDY    66  57  72 NE15      30.21S
HOBBS          CLEAR     68  66  94 S7        30.12S
MARFA          CLEAR    N/A N/A N/A NW5       30.18S
MIDLAND AIRPK  CLEAR     74  68  82 S6        30.09R
MIDLAND INTL   CLEAR     72  68  87 S7        30.08R
ODESSA         NOT AVBL
PECOS          CLEAR     70  63  77 SE6       30.03F
PRESIDIO       FAIR      78  63  60 N12       30.02F
SEMINOLE       CLEAR     71  63  75 S6        30.11S
SNYDER         CLEAR     71  67  89 S6        30.07S
WINK           CLEAR     72  64  76 SE7       30.05S
$$
...OTHER STATIONS IN TEXAS...

CITY           SKY/WX    TMP DP  RH WIND       PRES   REMARKS
ABILENE        CLEAR     74  67  78 S8        30.04S
AMARILLO       CLEAR     70  57  63 S16       30.08S
AUSTIN         PTCLDY    69  69 100 S3        30.03F
BROWNSVILLE    PTCLDY    80  75  84 E7        29.98F
CORPUS CHRISTI CLOUDY    77  74  90 S3        30.01S
DALLAS FTW     PTCLDY    75  69  81 S12       29.99S
DEL RIO        CLOUDY    74  70  87 SE7       30.02S
EL PASO        MOCLDY    76  51  41 CALM      30.08F
HOUSTON INT    PTCLDY    71  70  96 SE3       30.04S
LUBBOCK        CLEAR     72  63  73 S9        30.09R
SAN ANGELO     CLEAR     72  66  81 S10       30.06R
SAN ANTONIO    PTCLDY    74  70  87 S6        30.05S
WACO           CLEAR     74  71  91 S12       30.03R
WICHITA FALLS  NOT AVBL
$$
...OTHER LOCATIONS IN NEW MEXICO...

CITY           SKY/WX    TMP DP  RH WIND       PRES   REMARKS
ALAMAGORDO     CLEAR     72  48  43 S8        30.13R
ALBUQUERQUE    CLEAR     76  43  30 SE9       30.17R
CANNON AFB     CLEAR     66  57  72 SW8       30.14R
CLOVIS         CLEAR     63  55  77 S6        30.14
HOLLOMAN AFB   CLEAR     75  50  40 S10       30.11R
ROSWELL        CLEAR     66  54  65 S6        30.09S
RUIDOSO        CLEAR     59  46  63 NW6       30.32S
SANTA FE       CLEAR     67  43  41 E7        30.25S
TRUTH OR CONSE CLEAR     74  50  42 S8        30.15R
TUCUMCARI      CLEAR     73  55  53 S10       30.09R
$$

USA.gov is the U.S. government's official web portal to all federal, state and local government web resources and services.